Regional Weather Roundup
Issued by NWS

Home | Current Version | Previous Version | Text Only | Print | Product List | Glossary Off
Versions: 1 2 3 4 5 6 7 8 9 10 11 12 13 14 15 16 17 18 19 20 21 22 23 24 25 26 27 28 29 30 31 32 33 34 35 36 37 38 39 40 41 42 43 44 45 46 47 48 49 50

371
ASUS45 KTFX 150110
RWRMT
MONTANA REGIONAL WEATHER ROUNDUP
NATIONAL WEATHER SERVICE GREAT FALLS MT
600 PM MST THU DEC 14 2017

NOTE: "FAIR" INDICATES FEW OR NO CLOUDS BELOW 12000 FEET WITH NO
SIGNIFICANT WEATHER AND/OR OBSTRUCTIONS TO VISIBILITY.

MTZ001>007-043-150200-
WEST OF THE DIVIDE

CITY           SKY/WX    TMP DP  RH WIND       PRES   REMARKS
KALISPELL      CLOUDY    29  26  89 CALM      30.38F
MISSOULA       FAIR      26  23  88 W3        30.36S
BUTTE          FAIR      16  13  88 SE5       30.27S
MULLAN PASS    FAIR      27  23  85 SW5       30.27S
ANACONDA         N/A     18  16  93 SW5       30.29F
DEER LODGE       N/A     18  18 100 W6        30.32F WCI   9
EUREKA           N/A     25  21  86 MISG      30.43R
HAMILTON         N/A     23  21  93 CALM      30.35S VSB 0
LIBBY            N/A     28  25  86 CALM      30.39F
PLAINS           N/A     31  24  75 CALM      30.38
RONAN            N/A     30  26  85 CALM      30.38
$$

MTZ008-052>055-150200-
SOUTHWEST MONTANA

CITY           SKY/WX    TMP DP  RH WIND       PRES   REMARKS
BOZEMAN        FOG       17  15  92 N3        30.29S VSB<1/4
DILLON         FAIR      15  11  83 CALM      30.28R
W YELLOWSTONE  FAIR      21  18  86 CALM      30.31S
ENNIS          CLOUDY    28  18  64 SE3       30.30S
THREE FORKS      N/A     12   9  88 CALM      30.24F VSB 0
$$

MTZ009-010-012-014-046-048-049-054-150200-
EAST SLOPES AND CENTRAL MONTANA

CITY           SKY/WX    TMP DP  RH WIND       PRES   REMARKS
CUT BANK       FAIR      36  17  46 W10       30.04F WCI  28
GREAT FALLS    FAIR      35  20  54 SW20G26   30.11S WCI  24
MALMSTROM AFB  FAIR      35  22  58 SW22      30.11S WCI  23
HELENA         FAIR      22  21  96 CALM      30.27F
BOWMANS CRNR   FAIR      27  21  79 S21       30.11S WCI  13
CHOTEAU          N/A     43  16  33 S6G13     30.08F
CONRAD           N/A     30  22  72 SE7       30.07  WCI  23
FAIRFIELD      FAIR      34  20  56 S15G24    30.08F WCI  24
POWER          FAIR      32  20  59 SW9       30.08F WCI  25
RAYNESFORD     MOCLDY    41  16  36 SW14G20   30.10S
ULM            FAIR      34  21  59 SW13      30.13S WCI  25
$$

MTZ011-013-016-021-045-047-050-051-150200-
NORTH CENTRAL MONTANA

CITY           SKY/WX    TMP DP  RH WIND       PRES   REMARKS
HAVRE          FAIR      29  21  72 W5        30.07F
LEWISTOWN      FAIR      29  21  72 SE5       30.09F
N BAR RANCH    FAIR      27  14  59 W5        30.11F
CHINOOK          N/A     28  21  74 CALM      30.09F
DENTON         MOCLDY    30  20  66 CALM      30.06F
GEYSER         MOCLDY    39  17  40 NW6       30.08F
GRASS RANGE    FAIR      30  21  69 W6        30.06F WCI  24
STANFORD       FAIR      32  19  59 CALM      30.08F
WINIFRED       FAIR      35  22  59 W3        30.07F
$$

MTZ017>020-022>027-061-062-150200-
NORTHEAST MONTANA

CITY           SKY/WX    TMP DP  RH WIND       PRES   REMARKS
GLASGOW        FAIR      29  21  72 W6        30.10F WCI  23
GLENDIVE       FAIR      23  18  81 W8        30.13F WCI  14
JORDAN           N/A     18  13  80 W3        30.11F
SIDNEY         FAIR      28  22  78 W12       30.11F WCI  18
WOLF POINT     FAIR      29  20  69 W8        30.12F WCI  21
MALTA          CLEAR     23  19  86 CALM      30.11F
PLENTYWOOD       N/A     27  21  80 CALM      30.08S
POPLAR           N/A     27  19  74 W7        30.12F WCI  19
SCOBEY           N/A     25  15  65 W5        30.06F
$$

MTZ028>42-056>058-150200-
SOUTHCENTRAL AND SOUTHEAST MONTANA

CITY           SKY/WX    TMP DP  RH WIND       PRES   REMARKS
BAKER          FAIR      24  20  84 W7        30.13S WCI  16
BILLINGS       FAIR      40  20  44 W17       30.13F
LIVINGSTON     FAIR      32  22  66 W15       30.20F WCI  22
MILES CITY     FAIR      26  20  77 SW8       30.14F WCI  18
BIG TIMBER     CLEAR     36  19  51 SW30      30.14F WCI  22
EKALAKA          N/A     27  18  69 W8        30.08F WCI  19
FORSYTH          N/A     28  21  74 CALM      30.14F
LAUREL           N/A     34  19  55 W8        30.15F WCI  27
$$

REGIONAL REPORTS...DAKOTAS

CITY           SKY/WX    TMP DP  RH WIND       PRES   REMARKS
WILLISTON      FAIR      28  22  78 W6        30.09F WCI  22
MINOT          CLOUDY    34  24  67 NW20G25   30.03F WCI  23
DICKINSON      FAIR      29  24  82 W12       30.06F WCI  19
BEACH          FAIR      25  21  86 W9        30.14S WCI  15
CROSBY         CLOUDY    30  25  80 NW12      30.07F WCI  21
TIOGA          CLOUDY    32  27  80 NW15G21   30.06F WCI  22
WATFORD CITY   MOCLDY    30  25  80 W8        30.08F WCI  23
BISMARCK       CLOUDY    36  25  64 W9        30.08F WCI  29
GRAND FORKS    FLURRIES  19  17  92 SE3       30.03F
FARGO          LGT SNOW  23  20  88 CALM      30.03F FOG
BUFFALO SD       N/A     26  21  81 W7        30.06F WCI  18
RAPID CITY     FAIR      28  17  63 NW10      30.17F WCI  19
$$

REGIONAL REPORTS...WYOMING/IDAHO/WASHINGTON

CITY           SKY/WX    TMP DP  RH WIND       PRES   REMARKS
GILLETTE       FAIR      19  16  88 SW8       30.16F WCI   9
SHERIDAN       FAIR      25  19  78 S7        30.16F WCI  17
BUFFALO WY     FAIR      32  15  49 S6        30.16F WCI  26
CODY           FAIR      26  17  68 S9        30.19F WCI  17
YELLOWSTONE LA   N/A     11   8  88 W3        30.32S
IDAHO FALLS    FOG       22  21  96 CALM      30.43R VSB 1
SALMON         CLOUDY    27  23  85 CALM      30.43R
BOISE          CLOUDY    27  23  85 CALM      30.49S
SPOKANE        CLOUDY    30  29  96 N3        30.41S FOG
$$

REGIONAL REPORTS...ALBERTA

CITY           SKY/WX    TMP DP  RH WIND       PRES   REMARKS
EDMONTON       CLEAR     34  23  64 SW7       29.88F WCI  28
CALGARY        MOCLDY    36  19  51 S7        29.97S WCI  30
LETHBRIDGE     PTCLDY    41  19  42 W18       30.00F
MEDICINE HAT   MOCLDY    32  25  74 S10       30.00F WCI  24
$$

REGIONAL REPORTS...SASKATCHEWAN

CITY           SKY/WX    TMP DP  RH WIND       PRES   REMARKS
SWIFT CURRENT  CLEAR     25  21  86 SW10      30.00F WCI  15
REGINA         MOCLDY    27  23  86 NW7       30.04F WCI  19
SASKATOON      MOCLDY    27  23  86 SW7       30.00F WCI  19
$$




USA.gov is the U.S. government's official web portal to all federal, state and local government web resources and services.